�N����,����,�~����,�C��,���x,�C��,����,���ϕ���,�ő�u�ԕ���,�ő厞����,���˗�,�I�_���x,�n�����x,�ő啗���N��,DTYPE
"19/08/31","00:10",0.0,22.7,90.3,1006.2,167.9,0.8,2.2,117.8,0.00,21.1,25.3,"00:03:12",1
"19/08/31","00:20",0.0,22.7,89.9,1006.0,166.1,0.5,1.6,104.0,0.00,21.0,25.4,"00:13:20",1
"19/08/31","00:30",0.0,22.6,89.5,1006.2,244.4,0.5,1.6,142.1,0.00,20.8,25.4,"00:20:56",1
"19/08/31","00:40",0.0,22.6,89.7,1006.0,208.5,0.5,1.3,116.3,0.00,20.9,25.2,"00:37:52",1
"19/08/31","00:50",0.0,22.4,89.4,1006.2,186.0,0.7,1.8,113.7,0.00,20.6,25.3,"00:48:00",1
"19/08/31","01:00",0.0,22.1,89.4,1006.2,222.2,0.7,1.9,197.0,0.00,20.3,25.2,"00:55:20",1
"19/08/31","01:10",0.0,22.1,89.5,1006.2,252.9,0.3,1.1,185.0,0.00,20.3,25.2,"01:04:40",1
"19/08/31","01:20",0.0,21.9,89.4,1006.0,219.5,0.3,1.1,129.4,0.00,20.1,25.2,"01:14:08",1
"19/08/31","01:30",0.0,21.9,90.0,1005.7,275.3,0.3,0.8,276.2,0.00,20.2,25.1,"01:23:44",1
"19/08/31","01:40",0.0,22.0,89.7,1006.0,272.4,0.6,1.1,262.4,0.00,20.3,24.9,"01:32:56",1
"19/08/31","01:50",0.0,21.9,90.2,1006.2,266.2,0.3,0.9,266.8,0.00,20.3,25.0,"01:48:08",1
"19/08/31","02:00",0.0,21.8,89.7,1005.7,295.9,0.2,0.9,271.0,0.00,20.1,25.0,"01:50:16",1
"19/08/31","02:10",0.0,21.6,89.6,1006.0,284.4,0.3,0.8,318.2,0.00,19.9,25.0,"02:03:52",1
"19/08/31","02:20",0.0,21.6,89.6,1006.0,265.2,0.5,0.8,143.6,0.00,19.9,24.9,"02:11:12",1
"19/08/31","02:30",0.0,21.7,89.5,1006.4,298.3,0.8,1.1,314.0,0.00,19.9,24.8,"02:22:08",1
"19/08/31","02:40",0.0,21.6,89.0,1006.7,304.0,1.0,1.2,317.6,0.00,19.7,24.9,"02:32:00",1
"19/08/31","02:50",0.0,22.0,90.4,1006.7,322.8,1.3,1.8,328.2,0.00,20.4,25.1,"02:46:16",1
"19/08/31","03:00",0.0,22.0,90.4,1006.2,337.6,1.0,1.7,328.9,0.00,20.4,24.8,"02:51:12",1
"19/08/31","03:10",0.0,21.9,90.7,1006.4,321.3,1.2,1.8,327.5,0.00,20.4,24.8,"03:03:28",1
"19/08/31","03:20",0.0,21.9,90.9,1006.2,310.1,0.8,1.3,324.0,0.00,20.4,24.7,"03:10:32",1
"19/08/31","03:30",0.0,21.9,91.3,1006.4,318.1,1.2,1.4,319.4,0.00,20.5,24.8,"03:22:00",1
"19/08/31","03:40",0.0,21.9,91.8,1006.7,321.1,1.1,1.4,322.7,0.00,20.5,24.9,"03:32:00",1
"19/08/31","03:50",0.0,21.7,91.8,1006.7,318.3,1.3,1.7,318.8,0.00,20.3,25.0,"03:42:00",1
"19/08/31","04:00",0.0,21.7,91.9,1006.7,329.0,1.2,1.9,335.6,0.00,20.4,24.7,"03:59:36",1
"19/08/31","04:10",0.0,21.4,92.1,1006.7,329.8,1.1,2.0,334.5,0.00,20.1,24.7,"04:00:16",1
"19/08/31","04:20",0.0,21.6,92.8,1006.7,294.9,0.6,1.2,316.6,0.00,20.4,24.7,"04:10:02",1
"19/08/31","04:30",0.0,21.5,92.5,1006.9,312.7,1.0,1.6,328.1,0.00,20.3,24.7,"04:29:44",1
"19/08/31","04:40",0.0,21.5,93.0,1006.7,326.4,1.2,1.9,335.5,0.00,20.4,24.6,"04:30:08",1
"19/08/31","04:50",0.0,21.5,93.1,1006.9,307.0,0.8,1.4,316.8,0.00,20.4,24.7,"04:43:36",1
"19/08/31","05:00",0.0,21.3,93.5,1006.9,313.9,1.1,1.4,321.9,0.00,20.2,24.5,"04:56:08",1
"19/08/31","05:10",0.0,21.4,93.5,1007.1,339.8,1.1,1.7,328.3,0.00,20.3,24.7,"05:09:44",1
"19/08/31","05:20",0.0,21.3,93.6,1007.1,327.5,1.2,1.6,325.0,0.00,20.3,24.6,"05:14:08",1
"19/08/31","05:30",0.0,21.3,93.9,1006.9,326.4,1.3,1.6,323.9,0.00,20.3,24.3,"05:20:48",1
"19/08/31","05:40",0.0,21.4,94.1,1006.7,322.0,1.1,1.6,328.6,0.00,20.5,24.6,"05:32:08",1
"19/08/31","05:50",0.0,21.3,94.0,1006.7,323.8,1.1,1.7,341.8,0.00,20.3,24.5,"05:48:56",1
"19/08/31","06:00",0.0,21.1,94.1,1006.9,306.4,1.1,1.6,340.5,0.00,20.2,24.3,"05:50:16",1
"19/08/31","06:10",0.0,21.1,94.4,1006.9,313.9,1.1,1.4,315.3,0.00,20.2,24.2,"06:09:28",1
"19/08/31","06:20",0.0,21.1,94.6,1007.1,313.9,1.2,1.6,309.5,0.00,20.2,24.3,"06:14:48",1
"19/08/31","06:30",0.0,21.2,94.6,1007.1,316.7,1.1,1.6,316.0,0.00,20.3,24.5,"06:25:28",1
"19/08/31","06:40",0.0,21.4,94.7,1007.6,327.2,1.3,1.9,321.3,0.00,20.6,24.4,"06:39:12",1
"19/08/31","06:50",0.0,21.4,94.5,1007.4,324.6,1.5,1.9,330.1,0.01,20.5,24.3,"06:44:00",1
"19/08/31","07:00",0.0,21.6,94.4,1007.4,302.1,0.8,1.6,311.7,0.01,20.7,24.5,"06:50:40",1
"19/08/31","07:10",0.0,21.7,94.3,1007.8,292.9,0.6,1.4,326.0,0.01,20.8,24.4,"07:09:52",1
"19/08/31","07:20",0.0,22.0,94.6,1007.8,312.6,0.8,1.3,313.9,0.03,21.1,24.3,"07:10:16",1
"19/08/31","07:30",0.0,22.2,93.2,1007.8,307.6,0.7,1.3,313.8,0.06,21.1,24.5,"07:20:16",1
"19/08/31","07:40",0.0,22.4,92.5,1008.1,288.7,0.6,0.9,314.5,0.09,21.2,24.6,"07:34:24",1
"19/08/31","07:50",0.0,22.9,89.7,1008.3,262.9,0.5,0.8,271.8,0.08,21.2,24.4,"07:42:48",1
"19/08/31","08:00",0.0,23.2,88.2,1008.1,284.2,0.5,1.1,229.2,0.08,21.2,24.6,"07:58:08",1
"19/08/31","08:10",0.0,23.4,88.3,1008.1,258.0,0.7,1.4,233.2,0.06,21.4,24.5,"08:08:32",1
"19/08/31","08:20",0.0,23.6,86.7,1008.1,130.4,0.2,1.0,244.1,0.11,21.3,24.5,"08:10:02",1
"19/08/31","08:30",0.0,23.8,85.0,1008.1,255.1,0.6,1.7,221.1,0.08,21.2,24.6,"08:22:08",1
"19/08/31","08:40",0.0,24.0,85.0,1008.3,317.9,0.7,1.6,342.4,0.11,21.4,24.7,"08:31:28",1
"19/08/31","08:50",0.0,24.0,83.9,1008.1,328.1,0.7,1.4,339.2,0.15,21.1,24.8,"08:48:40",1
"19/08/31","09:00",0.0,24.9,82.1,1008.3,297.0,0.6,1.6,343.2,0.27,21.7,24.8,"08:55:36",1
"19/08/31","09:10",0.0,25.8,80.7,1007.8,19.9,0.5,1.7,109.0,0.31,22.3,24.8,"09:03:36",1
"19/08/31","09:20",0.0,25.6,80.2,1007.1,185.6,0.7,2.1,220.8,0.30,22.0,25.0,"09:18:32",1
"19/08/31","09:30",0.0,25.1,79.7,1007.4,148.8,0.8,1.9,146.3,0.28,21.4,25.0,"09:22:48",1
"19/08/31","09:40",0.0,25.5,79.6,1008.3,186.4,0.8,1.9,217.4,0.26,21.8,25.2,"09:31:36",1
"19/08/31","09:50",0.0,25.8,78.1,1008.1,242.0,0.7,2.0,230.3,0.27,21.7,25.3,"09:41:04",1
"19/08/31","10:00",0.0,26.4,77.9,1008.6,138.6,1.0,2.4,145.7,0.40,22.3,25.4,"09:55:52",1
"19/08/31","10:10",0.0,26.6,75.8,1008.8,129.8,1.0,1.9,163.0,0.42,22.0,25.6,"10:02:00",1
"19/08/31","10:20",0.0,27.2,76.2,1008.8,129.2,0.7,1.8,141.3,0.39,22.7,25.6,"10:14:24",1
"19/08/31","10:30",0.0,27.3,75.4,1009.5,151.1,1.2,2.7,130.6,0.44,22.6,25.7,"10:23:20",1
"19/08/31","10:40",0.0,27.7,76.1,1009.5,162.0,1.1,2.4,204.8,0.43,23.1,26.0,"10:34:00",1
"19/08/31","10:50",0.0,27.1,74.1,1009.0,196.5,1.6,3.3,211.2,0.39,22.1,26.1,"10:48:24",1
"19/08/31","11:00",0.0,27.3,74.0,1009.3,188.2,1.1,2.7,215.3,0.33,22.3,26.1,"10:59:28",1
"19/08/31","11:10",0.0,28.1,72.3,1009.0,151.9,1.0,2.6,200.4,0.42,22.7,26.3,"11:08:48",1
"19/08/31","11:20",0.0,27.4,74.8,1008.8,180.6,1.5,3.4,175.6,0.26,22.6,26.5,"11:19:44",1
"19/08/31","11:30",0.0,27.2,76.3,1008.6,155.0,1.3,3.1,187.4,0.19,22.7,26.6,"11:20:32",1
"19/08/31","11:40",0.0,27.1,75.3,1008.3,188.2,1.6,3.6,225.1,0.20,22.4,26.6,"11:39:04",1
"19/08/31","11:50",0.0,27.9,73.3,1007.8,207.6,2.1,3.6,219.5,0.41,22.7,26.7,"11:45:28",1
"19/08/31","12:00",0.0,28.3,71.5,1008.1,188.9,1.6,2.7,228.4,0.47,22.7,26.6,"11:52:16",1
"19/08/31","12:10",0.0,28.2,71.2,1008.1,179.9,1.5,3.2,138.0,0.37,22.5,26.8,"12:01:12",1
"19/08/31","12:20",0.0,27.8,71.6,1008.1,173.3,1.5,3.9,126.9,0.28,22.2,26.9,"12:15:12",1
"19/08/31","12:30",0.0,27.7,71.3,1008.1,164.2,1.3,2.7,215.7,0.20,22.1,27.0,"12:24:00",1
"19/08/31","12:40",0.0,29.1,68.2,1007.6,180.8,1.3,2.7,141.4,0.45,22.7,27.0,"12:33:12",1
"19/08/31","12:50",0.0,28.8,67.8,1008.3,179.1,1.6,2.9,185.3,0.50,22.3,27.0,"12:44:32",1
"19/08/31","13:00",0.0,28.8,67.5,1008.1,195.8,2.2,4.1,227.2,0.47,22.2,27.1,"12:59:44",1
"19/08/31","13:10",0.0,29.5,66.7,1008.1,206.3,1.7,3.3,227.7,0.51,22.7,27.3,"13:05:20",1
"19/08/31","13:20",0.0,29.4,68.2,1008.1,202.0,1.7,3.1,215.2,0.45,23.0,27.6,"13:17:20",1
"19/08/31","13:30",0.0,28.7,67.5,1008.1,154.1,1.1,2.6,173.1,0.41,22.1,27.6,"13:25:20",1
"19/08/31","13:40",0.0,29.6,66.8,1008.3,161.2,1.3,2.8,135.6,0.39,22.8,27.6,"13:36:48",1
"19/08/31","13:50",0.0,29.3,64.7,1008.1,166.8,2.5,4.9,224.5,0.53,22.0,27.9,"13:47:44",1
"19/08/31","14:00",0.0,29.3,64.3,1008.3,196.1,1.6,3.5,217.8,0.42,21.9,27.9,"13:54:00",1
"19/08/31","14:10",0.0,29.7,63.3,1007.8,170.1,1.5,5.4,225.4,0.44,22.0,28.0,"14:09:28",1
"19/08/31","14:20",0.0,29.9,63.6,1008.3,207.8,1.6,3.4,214.1,0.39,22.3,28.1,"14:11:20",1
"19/08/31","14:30",0.0,30.0,60.0,1007.6,213.4,1.6,3.1,213.8,0.41,21.4,28.2,"14:25:44",1
"19/08/31","14:40",0.0,30.8,61.6,1008.1,199.3,1.5,3.5,224.2,0.40,22.6,28.2,"14:36:16",1
"19/08/31","14:50",0.0,30.0,60.9,1008.3,185.7,1.5,3.6,200.2,0.39,21.7,28.2,"14:43:12",1
"19/08/31","15:00",0.0,29.9,60.6,1008.3,218.0,1.1,3.2,228.9,0.30,21.5,28.3,"14:53:36",1
"19/08/31","15:10",0.0,29.3,61.6,1008.3,215.9,1.5,3.7,226.7,0.19,21.2,28.0,"15:02:24",1
"19/08/31","15:20",0.0,29.3,62.1,1007.8,215.0,2.0,4.7,223.1,0.15,21.3,28.1,"15:14:56",1
"19/08/31","15:30",0.0,29.1,61.6,1007.6,218.3,2.0,3.9,210.3,0.15,21.0,28.1,"15:20:16",1
"19/08/31","15:40",0.0,28.8,63.9,1007.1,244.2,1.2,3.5,216.1,0.10,21.3,28.1,"15:38:56",1
"19/08/31","15:50",0.0,28.6,62.5,1007.1,215.0,2.6,5.5,217.3,0.04,20.8,27.8,"15:46:08",1
"19/08/31","16:00",0.0,28.4,63.8,1006.7,219.2,1.8,3.4,220.5,0.03,20.9,27.9,"15:51:12",1
"19/08/31","16:10",0.0,28.2,64.3,1006.7,234.8,1.5,3.2,213.6,0.04,20.9,27.7,"16:09:52",1
"19/08/31","16:20",0.0,27.9,66.3,1006.4,216.6,1.7,2.9,220.7,0.03,21.1,27.6,"16:18:32",1
"19/08/31","16:30",0.0,27.8,67.1,1005.7,222.0,1.8,3.1,229.6,0.02,21.2,27.5,"16:24:16",1
"19/08/31","16:40",0.0,27.6,67.7,1006.4,222.0,1.8,3.4,232.7,0.01,21.1,27.5,"16:30:16",1
"19/08/31","16:50",0.0,27.2,69.0,1006.9,210.6,2.0,4.7,233.1,0.01,21.1,27.4,"16:46:00",1
"19/08/31","17:00",0.0,26.5,71.3,1007.1,210.5,2.3,5.0,220.4,0.01,20.9,27.4,"16:56:48",1
"19/08/31","17:10",0.0,25.7,72.7,1007.6,202.7,1.8,5.0,190.2,0.01,20.5,27.1,"17:09:28",1
"19/08/31","17:20",0.0,25.6,74.5,1007.8,227.8,1.1,2.9,221.2,0.01,20.8,27.2,"17:18:08",1
"19/08/31","17:30",0.0,25.5,76.4,1007.8,253.7,0.5,1.8,233.2,0.02,21.1,27.2,"17:20:48",1
"19/08/31","17:40",0.0,25.8,77.0,1007.6,348.0,0.8,2.0,345.4,0.03,21.5,26.9,"17:39:20",1
"19/08/31","17:50",0.0,25.4,77.3,1007.8,359.6,1.0,3.1,351.6,0.02,21.2,26.8,"17:41:04",1
"19/08/31","18:00",0.0,25.2,77.9,1007.6,198.9,0.6,1.3,146.8,0.01,21.1,26.9,"17:58:40",1
"19/08/31","18:10",0.0,24.8,78.4,1007.4,173.6,1.0,2.6,140.4,0.00,20.8,26.8,"18:05:36",1
"19/08/31","18:20",0.0,24.5,78.9,1007.4,185.5,1.0,1.8,196.0,0.00,20.6,26.5,"18:13:44",1
"19/08/31","18:30",0.0,24.2,79.6,1007.6,173.5,1.1,2.7,200.3,0.00,20.5,26.4,"18:21:36",1
"19/08/31","18:40",0.0,23.9,80.3,1007.4,140.5,0.8,2.2,121.4,0.00,20.3,26.7,"18:36:48",1
"19/08/31","18:50",0.0,23.7,81.2,1007.4,174.2,1.0,2.4,127.7,0.00,20.3,26.6,"18:46:00",1
"19/08/31","19:00",0.0,23.5,82.0,1007.6,202.4,0.8,2.0,227.2,0.00,20.3,26.4,"18:57:52",1
"19/08/31","19:10",0.0,23.5,82.6,1008.3,188.6,1.0,2.0,181.4,0.00,20.4,26.2,"19:05:36",1
"19/08/31","19:20",0.0,23.4,83.1,1008.3,199.9,1.2,3.3,206.4,0.00,20.4,26.3,"19:13:52",1
"19/08/31","19:30",0.0,23.2,83.8,1008.6,192.5,1.2,3.7,226.6,0.00,20.3,26.2,"19:22:00",1
"19/08/31","19:40",0.0,23.1,84.7,1008.6,207.7,0.8,1.8,212.1,0.00,20.4,26.1,"19:34:08",1
"19/08/31","19:50",0.0,22.9,85.3,1009.0,91.2,0.3,1.2,218.9,0.00,20.3,26.1,"19:44:00",1
"19/08/31","20:00",0.0,22.8,86.0,1009.5,321.9,0.8,1.6,337.1,0.00,20.4,25.9,"19:58:40",1
"19/08/31","20:10",0.0,22.7,86.9,1009.5,324.0,1.1,1.6,332.3,0.00,20.4,25.9,"20:00:56",1
"19/08/31","20:20",0.0,22.4,87.5,1009.3,295.0,0.7,1.2,303.3,0.00,20.3,25.8,"20:19:28",1
"19/08/31","20:30",0.0,22.4,88.5,1009.7,326.6,1.3,1.8,338.3,0.00,20.4,25.7,"20:26:24",1
"19/08/31","20:40",0.0,22.2,89.0,1009.7,329.5,1.5,2.2,325.7,0.00,20.3,25.7,"20:36:16",1
"19/08/31","20:50",0.0,22.2,89.5,1010.0,324.3,1.3,2.2,324.8,0.00,20.4,25.6,"20:41:28",1
"19/08/31","21:00",0.0,22.1,89.9,1010.0,316.7,1.0,1.6,312.6,0.00,20.4,25.5,"20:51:20",1
"19/08/31","21:10",0.0,22.1,90.2,1010.2,303.2,1.1,1.8,314.9,0.00,20.5,25.7,"21:09:36",1
"19/08/31","21:20",0.0,22.0,90.4,1010.9,287.9,1.0,1.7,317.3,0.00,20.4,25.5,"21:10:32",1
"19/08/31","21:30",0.0,22.1,90.9,1010.9,306.9,1.2,2.0,310.4,0.00,20.6,25.3,"21:25:52",1
"19/08/31","21:40",0.0,22.1,91.0,1010.7,315.2,1.1,2.0,330.7,0.00,20.6,25.5,"21:33:20",1
"19/08/31","21:50",0.0,22.1,91.0,1010.4,293.0,0.8,1.0,308.0,0.00,20.6,25.5,"21:40:16",1
"19/08/31","22:00",0.0,22.3,91.0,1010.7,267.8,0.7,1.2,280.2,0.00,20.8,25.3,"21:50:40",1
"19/08/31","22:10",0.0,22.2,91.1,1010.4,308.4,0.8,1.4,311.9,0.00,20.7,25.5,"22:07:28",1
"19/08/31","22:20",0.0,22.1,91.3,1010.2,318.9,1.3,1.9,330.6,0.00,20.7,25.3,"22:13:44",1
"19/08/31","22:30",0.0,22.0,91.7,1010.4,313.8,1.2,1.8,312.8,0.00,20.6,25.4,"22:25:44",1
"19/08/31","22:40",0.0,21.9,91.7,1010.7,294.9,1.1,2.1,333.1,0.00,20.5,25.2,"22:39:36",1
"19/08/31","22:50",0.0,21.9,91.9,1010.9,316.2,1.5,2.5,327.7,0.00,20.6,25.2,"22:44:56",1
"19/08/31","23:00",0.0,21.9,91.9,1010.9,330.1,1.2,1.7,335.3,0.00,20.6,25.3,"22:50:48",1
"19/08/31","23:10",0.0,21.9,92.2,1011.2,325.2,1.2,1.7,322.2,0.00,20.6,24.9,"23:06:08",1
"19/08/31","23:20",0.0,21.9,92.3,1010.9,290.5,0.7,1.0,285.2,0.00,20.6,25.1,"23:13:52",1
"19/08/31","23:30",0.0,21.7,92.6,1010.9,323.3,1.1,1.6,321.0,0.00,20.5,25.1,"23:24:56",1
"19/08/31","23:40",0.0,21.7,92.6,1011.2,299.7,1.1,1.7,315.9,0.00,20.5,25.1,"23:39:20",1
"19/08/31","23:50",0.0,21.5,92.7,1011.2,297.3,1.1,1.7,323.7,0.00,20.3,25.0,"23:40:56",1
"19/08/31","24:00",0.0,21.5,93.1,1011.4,305.2,1.1,1.6,315.6,0.00,20.4,25.1,"23:50:24",1
